Zurück zum Katalog

STARLINK-1577

AktivKommunikationVLEO
NORAD 46063·PAYLOAD·🇺🇸 United States

Gestartet Aug 7, 2020 von Cape Canaveral Space Force Station

Loading…

Nächste Überflüge (nächste 24 Stunden)

TLE

AktuellSource: CelesTrak SupGP

Epoche: Sep 15, 2026, 02:40 UTC

1 46063C 20055AN  26258.11159722  .00041231  00000+0  13253-2 0  2586
2 46063  53.1571 312.3498 0001253  98.8132 238.9007 15.31696916    12

Verfolge STARLINK-1577 in Echtzeit mit AllMySat

Download on the App Store